Weather History for KSMX - March, 2014

Change the Weather History Date:

Monday, March 17, 2014

  Actual Average Record
Temperature  
Mean Temperature 59 °F 54 °F  
Max Temperature 70 °F 65 °F 85 °F (1978)
Min Temperature 48 °F 43 °F 32 °F (2008)
Degree Days  
Heating Degree Days 6 11  
Month to date heating degree days 65 187  
Since 1 July heating degree days 1203 2020  
Cooling Degree Days 0 0  
Month to date cooling degree days 8 0  
Year to date cooling degree days 12 1  
Growing Degree Days 9 (Base 50)    
Moisture  
Dew Point 48 °F    
Average Humidity 68    
Maximum Humidity 96    
Minimum Humidity 39    
Precipitation  
Precipitation 0.00 in 0.08 in 1.60 in (1991)
Month to date precipitation 0.79 1.65  
Year to date precipitation 2.68 7.39  
Since 1 July precipitation 3.18  
Sea Level Pressure  
Sea Level Pressure 30.06 in    
Wind  
Wind Speed 13 mph (WNW)    
Max Wind Speed 33 mph    
Max Gust Speed 38 mph    
Visibility 5 miles    
Events Fog    
T = Trace of Precipitation, MM = Missing Value Source: NWS Daily Summary

Daily Weather History Graph

Daily Weather History Graph

Search for Another Location

Airport or City:

Trip Planner

Search our weather history database for the weather conditions in past years. The results will help you decide how hot, cold, wet, or windy it might be!

Date:

Astronomy

Mar. 17, 2014 Rise Set
Actual Time 7:09 AM PDT 7:11 PM PDT
Civil Twilight 6:44 AM PDT 7:36 PM PDT
Nautical Twilight 6:14 AM PDT 8:05 PM PDT
Astronomical Twilight 5:45 AM PDT 8:35 PM PDT
Moon 8:28 PM PDT (3/17) 7:31 AM PDT (3/17)
Length of Visible Light 12h 52m
Length of Day
12h 01m
Full, 99% of the Moon is Illuminated
Mar 17
Full
Mar 23
Last Quarter
Mar 30
New
Apr 7
First Quarter
Apr 15
Full

Hourly Weather History & Observations

Time (PDT) Temp. Dew Point Humidity Pressure Visibility Wind Dir Wind Speed Gust Speed Precip Events Conditions
12:00 AM 53.6 °F 51.8 °F 94% 30.17 in 0.2 mi NNW 4.6 mph - N/A Fog Fog
12:51 AM 54.0 °F 51.1 °F 90% 30.16 in 0.2 mi NNE 3.5 mph - N/A Fog Fog
1:51 AM 54.0 °F 51.1 °F 90% 30.15 in 0.2 mi Calm Calm - N/A Fog Fog
2:32 AM 51.8 °F 48.2 °F 88% 30.14 in 0.5 mi South 3.5 mph - N/A Fog Fog
2:51 AM 52.0 °F 50.0 °F 93% 30.14 in 0.5 mi Calm Calm - N/A Fog Fog
3:06 AM 51.8 °F 50.0 °F 94% 30.13 in 0.2 mi Calm Calm - N/A Fog Fog
3:21 AM 51.8 °F 50.0 °F 94% 30.13 in 0.5 mi South 3.5 mph - N/A Fog Fog
3:46 AM 53.6 °F 50.0 °F 88% 30.13 in 1.5 mi West 3.5 mph - N/A   Overcast
3:51 AM 53.1 °F 50.0 °F 89% 30.13 in 2.5 mi Variable 5.8 mph - N/A   Overcast
3:58 AM 53.6 °F 51.8 °F 94% 30.12 in 5.0 mi NW 12.7 mph 17.3 mph N/A   Overcast
4:06 AM 53.6 °F 51.8 °F 94% 30.12 in 6.0 mi NW 10.4 mph 17.3 mph N/A   Overcast
4:51 AM 53.1 °F 48.9 °F 86% 30.13 in 5.0 mi Calm Calm - N/A   Overcast
5:09 AM 53.6 °F 48.2 °F 82% 30.11 in 4.0 mi Calm Calm - N/A   Scattered Clouds
5:23 AM 51.8 °F 48.2 °F 88% 30.11 in 2.5 mi Calm Calm - N/A   Mostly Cloudy
5:26 AM 51.8 °F 48.2 °F 88% 30.10 in 1.2 mi Calm Calm - N/A   Mostly Cloudy
5:34 AM 51.8 °F 48.2 °F 88% 30.10 in 2.0 mi SSE 3.5 mph - N/A   Scattered Clouds
5:41 AM 51.8 °F 48.2 °F 88% 30.10 in 4.0 mi South 3.5 mph - N/A   Scattered Clouds
5:51 AM 51.1 °F 48.0 °F 89% 30.10 in 4.0 mi South 3.5 mph - N/A   Scattered Clouds
6:05 AM 51.8 °F 48.2 °F 88% 30.09 in 3.0 mi SW 3.5 mph - N/A   Mostly Cloudy
6:27 AM 51.8 °F 48.2 °F 88% 30.09 in 0.2 mi WSW 3.5 mph - N/A Fog Fog
6:37 AM 51.8 °F 48.2 °F 88% 30.08 in 2.5 mi Calm Calm - N/A   Mostly Cloudy
6:51 AM 50.0 °F 46.9 °F 89% 30.09 in 3.0 mi Calm Calm - N/A   Mostly Cloudy
7:01 AM 48.2 °F 46.4 °F 93% 30.08 in 5.0 mi Calm Calm - N/A   Scattered Clouds
7:31 AM 48.2 °F 44.6 °F 87% 30.08 in 0.8 mi NW 6.9 mph - N/A   Mist
7:38 AM 48.2 °F 44.6 °F 87% 30.08 in 0.2 mi NW 9.2 mph - N/A Fog Fog
7:47 AM 50.0 °F 46.4 °F 87% 30.08 in 0.2 mi NW 5.8 mph - N/A Fog Fog
7:51 AM 50.0 °F 48.0 °F 93% 30.09 in 0.2 mi NNW 4.6 mph - N/A Fog Fog
7:58 AM 50.0 °F 48.2 °F 94% 30.08 in 1.0 mi NNW 3.5 mph - N/A   Mist
8:00 AM 51.8 °F 48.2 °F 88% 30.08 in 4.0 mi Calm Calm - N/A   Scattered Clouds
8:51 AM 55.0 °F 51.1 °F 86% 30.08 in 5.0 mi WNW 6.9 mph - N/A   Partly Cloudy
9:51 AM 62.1 °F 45.0 °F 53% 30.06 in 10.0 mi WNW 12.7 mph - N/A   Partly Cloudy
10:51 AM 66.0 °F 42.1 °F 42% 30.05 in 10.0 mi WNW 19.6 mph - N/A   Clear
11:51 AM 68.0 °F 42.1 °F 39% 30.04 in 10.0 mi WNW 21.9 mph - N/A   Partly Cloudy
12:51 PM 70.0 °F 44.1 °F 39% 30.00 in 10.0 mi WNW 25.3 mph - N/A   Partly Cloudy
1:51 PM 66.0 °F 50.0 °F 56% 29.98 in 8.0 mi WNW 29.9 mph 35.7 mph N/A   Partly Cloudy
2:51 PM 64.0 °F 48.0 °F 56% 29.96 in 8.0 mi WNW 27.6 mph 36.8 mph N/A   Partly Cloudy
3:51 PM 63.0 °F 48.9 °F 60% 29.94 in 9.0 mi WNW 27.6 mph 36.8 mph N/A   Partly Cloudy
4:51 PM 61.0 °F 48.0 °F 62% 29.93 in 9.0 mi WNW 26.5 mph 34.5 mph N/A   Clear
5:51 PM 59.0 °F 48.0 °F 67% 29.93 in 9.0 mi WNW 25.3 mph 32.2 mph N/A   Partly Cloudy
6:51 PM 55.9 °F 48.0 °F 75% 29.93 in 9.0 mi WNW 16.1 mph 27.6 mph N/A   Scattered Clouds
7:51 PM 55.0 °F 46.9 °F 74% 29.92 in 9.0 mi WNW 15.0 mph - N/A   Clear
8:51 PM 54.0 °F 48.0 °F 80% 29.94 in 9.0 mi NW 12.7 mph - N/A   Clear
9:51 PM 54.0 °F 48.0 °F 80% 29.94 in 7.0 mi NW 9.2 mph - N/A   Clear
10:51 PM 51.1 °F 46.0 °F 83% 29.94 in 9.0 mi NW 3.5 mph - N/A   Clear
11:51 PM 53.1 °F 48.9 °F 86% 29.92 in 6.0 mi NW 8.1 mph - N/A   Clear